Location: Newark
(44.4156°N, 12.1972°E)
Time: 20:09:56
(UTC+00:00)

STARLINK-1108 - Pass Details

Date: 29 January 2020
Orbit: 348 x 351 km, 53.0° (Epoch: 18 February)

Event Time Altitude Azimuth Distance (km) Brightness Sun altitude
Rises 17:47:38 0° 306° (NW) 2,167 7.4 -16.5°
Reaches altitude 10° 17:49:42 10° 313° (NW) 1,322 6.1 -16.9°
Enters shadow 17:52:21 45° 14° (NNE) 495 3.2 -17.4°
